ZPTAI SAZV-SSAE

Flight info

Callsign ZPTAI
Flight time 3h 53m
Altitude FL075
Route 3707S05653W 3643S05641W 3633S05641W 3622S05643W 3453S05516W 3447S05513W 3438S05504W 3412S05446W 3340S05413W 3312S05349W 3234S05323W
Aircraft C152/L-S/N

Departure

Time 2026-04-12 17:20
Airport Villa Gesell Airport (SAZV)

Arrival

Time 2026-04-12 21:14
Airport Arroio Grande Airport (SSAE)
Time Latitude Longitude Altitude Speed Heading
2026-04-12 17:07 -37.23383 -57.01466 37 ft 0 kts 195°
2026-04-12 17:17 -37.23384 -57.01466 37 ft 0 kts 195°
2026-04-12 17:17 -37.23384 -57.01467 37 ft 0 kts 195°
2026-04-12 17:18 -37.23416 -57.01468 37 ft 13 kts 183°
2026-04-12 17:18 -37.23533 -57.01492 37 ft 16 kts 177°
2026-04-12 17:18 -37.23567 -57.01528 37 ft 3 kts 285°
2026-04-12 17:18 -37.23563 -57.01567 37 ft 21 kts 276°
2026-04-12 17:19 -37.23501 -57.01925 37 ft 61 kts 281°
2026-04-12 17:19 -37.23412 -57.02478 142 ft 63 kts 283°
2026-04-12 17:19 -37.23340 -57.03017 253 ft 65 kts 278°
2026-04-12 17:19 -37.23286 -57.03590 332 ft 71 kts 292°
2026-04-12 17:20 -37.22870 -57.03779 427 ft 71 kts 27°
2026-04-12 17:20 -37.22684 -57.03220 573 ft 71 kts 80°
2026-04-12 17:20 -37.22502 -57.02666 680 ft 71 kts 62°
2026-04-12 17:20 -37.22310 -57.02090 764 ft 73 kts 64°
2026-04-12 17:21 -37.22057 -57.01524 833 ft 76 kts 52°
2026-04-12 17:21 -37.21720 -57.00997 891 ft 79 kts 47°
2026-04-12 17:21 -37.21347 -57.00478 940 ft 81 kts 46°
2026-04-12 17:21 -37.20961 -56.99959 980 ft 83 kts 46°
2026-04-12 17:22 -37.20566 -56.99435 1013 ft 83 kts 45°
2026-04-12 17:22 -37.20172 -56.98914 1034 ft 82 kts 45°
2026-04-12 17:22 -37.19779 -56.98395 1060 ft 82 kts 45°
2026-04-12 17:22 -37.19387 -56.97879 1084 ft 82 kts 44°
2026-04-12 17:23 -37.18993 -56.97359 1102 ft 83 kts 43°
2026-04-12 17:23 -37.18591 -56.96831 1122 ft 85 kts 41°
2026-04-12 17:23 -37.18184 -56.96296 1146 ft 86 kts 41°
2026-04-12 17:23 -37.17768 -56.95749 1175 ft 87 kts 41°
2026-04-12 17:24 -37.17351 -56.95201 1202 ft 88 kts 41°
2026-04-12 17:24 -37.16930 -56.94648 1227 ft 88 kts 41°
2026-04-12 17:24 -37.16507 -56.94091 1255 ft 89 kts 42°
2026-04-12 17:24 -37.16081 -56.93531 1284 ft 89 kts 42°
2026-04-12 17:25 -37.15652 -56.92966 1312 ft 90 kts 42°
2026-04-12 17:25 -37.15225 -56.92405 1336 ft 89 kts 42°
2026-04-12 17:25 -37.14798 -56.91842 1360 ft 89 kts 42°
2026-04-12 17:25 -37.14371 -56.91281 1385 ft 89 kts 42°
2026-04-12 17:26 -37.13945 -56.90720 1412 ft 89 kts 42°
2026-04-12 17:26 -37.13528 -56.90173 1470 ft 86 kts 42°
2026-04-12 17:26 -37.13116 -56.89631 1504 ft 86 kts 42°
2026-04-12 17:26 -37.12697 -56.89081 1519 ft 89 kts 43°
2026-04-12 17:27 -37.12268 -56.88515 1515 ft 91 kts 42°
2026-04-12 17:27 -37.11734 -56.88138 1523 ft 87 kts 15°
2026-04-12 17:27 -37.11194 -56.87851 1581 ft 83 kts 19°
2026-04-12 17:27 -37.10655 -56.87570 1610 ft 85 kts 19°
2026-04-12 17:28 -37.10109 -56.87294 1645 ft 85 kts 18°
2026-04-12 17:28 -37.09558 -56.87017 1677 ft 86 kts 18°
2026-04-12 17:28 -37.09003 -56.86739 1707 ft 86 kts 18°
2026-04-12 17:28 -37.08446 -56.86461 1736 ft 87 kts 19°
2026-04-12 17:29 -37.07887 -56.86183 1763 ft 87 kts 19°
2026-04-12 17:29 -37.07328 -56.85904 1789 ft 87 kts 19°
2026-04-12 17:29 -37.06768 -56.85625 1815 ft 87 kts 19°
2026-04-12 17:29 -37.06209 -56.85346 1840 ft 87 kts 19°
2026-04-12 17:30 -37.05647 -56.85067 1865 ft 87 kts 19°
2026-04-12 17:30 -37.05088 -56.84788 1890 ft 87 kts 19°
2026-04-12 17:30 -37.04529 -56.84510 1915 ft 87 kts 19°
2026-04-12 17:30 -37.03970 -56.84231 1940 ft 86 kts 19°
2026-04-12 17:31 -37.03412 -56.83954 1964 ft 86 kts 19°
2026-04-12 17:31 -37.02856 -56.83677 1989 ft 86 kts 19°
2026-04-12 17:31 -37.02302 -56.83401 2015 ft 86 kts 19°
2026-04-12 17:31 -37.01748 -56.83126 2040 ft 86 kts 19°
2026-04-12 17:32 -37.01198 -56.82852 2065 ft 85 kts 19°
2026-04-12 17:32 -37.00648 -56.82579 2089 ft 85 kts 19°
2026-04-12 17:32 -37.00101 -56.82307 2113 ft 85 kts 19°
2026-04-12 17:32 -36.99555 -56.82035 2138 ft 85 kts 19°
2026-04-12 17:33 -36.99008 -56.81764 2163 ft 84 kts 19°
2026-04-12 17:33 -36.98464 -56.81493 2188 ft 84 kts 19°
2026-04-12 17:33 -36.97923 -56.81224 2213 ft 84 kts 19°
2026-04-12 17:33 -36.97381 -56.80955 2237 ft 84 kts 19°
2026-04-12 17:34 -36.96841 -56.80687 2263 ft 84 kts 19°
2026-04-12 17:34 -36.96303 -56.80420 2289 ft 83 kts 19°
2026-04-12 17:34 -36.95767 -56.80154 2313 ft 83 kts 19°
2026-04-12 17:34 -36.95231 -56.79887 2338 ft 83 kts 19°
2026-04-12 17:35 -36.94697 -56.79622 2363 ft 83 kts 19°
2026-04-12 17:35 -36.94162 -56.79357 2388 ft 83 kts 20°
2026-04-12 17:35 -36.93631 -56.79093 2413 ft 82 kts 20°
2026-04-12 17:35 -36.93100 -56.78830 2439 ft 82 kts 20°
2026-04-12 17:36 -36.92570 -56.78567 2464 ft 82 kts 20°
2026-04-12 17:36 -36.92041 -56.78304 2489 ft 82 kts 20°
2026-04-12 17:36 -36.91514 -56.78043 2514 ft 82 kts 20°
2026-04-12 17:36 -36.90988 -56.77782 2538 ft 81 kts 20°
2026-04-12 17:37 -36.90463 -56.77522 2562 ft 81 kts 20°
2026-04-12 17:37 -36.89939 -56.77262 2588 ft 81 kts 20°
2026-04-12 17:37 -36.89415 -56.77002 2615 ft 82 kts 18°
2026-04-12 17:37 -36.88870 -56.76733 2622 ft 87 kts 17°
2026-04-12 17:38 -36.88301 -56.76453 2654 ft 88 kts 18°
2026-04-12 17:38 -36.87727 -56.76168 2687 ft 89 kts 18°
2026-04-12 17:38 -36.87149 -56.75882 2717 ft 90 kts 18°
2026-04-12 17:38 -36.86570 -56.75595 2746 ft 90 kts 18°
2026-04-12 17:39 -36.85986 -56.75306 2774 ft 91 kts 18°
2026-04-12 17:39 -36.85402 -56.75016 2800 ft 91 kts 18°
2026-04-12 17:39 -36.84817 -56.74726 2826 ft 91 kts 18°
2026-04-12 17:39 -36.84232 -56.74437 2851 ft 91 kts 18°
2026-04-12 17:40 -36.83645 -56.74146 2876 ft 91 kts 18°
2026-04-12 17:40 -36.83060 -56.73857 2901 ft 91 kts 18°
2026-04-12 17:40 -36.82474 -56.73567 2926 ft 91 kts 18°
2026-04-12 17:40 -36.81889 -56.73277 2950 ft 91 kts 18°
2026-04-12 17:41 -36.81303 -56.72988 2975 ft 91 kts 18°
2026-04-12 17:41 -36.80719 -56.72699 2999 ft 91 kts 18°
2026-04-12 17:41 -36.80134 -56.72410 3024 ft 91 kts 18°
2026-04-12 17:41 -36.79550 -56.72121 3048 ft 90 kts 17°
2026-04-12 17:42 -36.78965 -56.71832 3074 ft 91 kts 18°
2026-04-12 17:42 -36.78382 -56.71544 3098 ft 90 kts 17°
2026-04-12 17:42 -36.77799 -56.71255 3123 ft 90 kts 17°
2026-04-12 17:43 -36.76634 -56.70680 3173 ft 90 kts 17°
2026-04-12 17:43 -36.76053 -56.70393 3198 ft 90 kts 17°
2026-04-12 17:43 -36.75473 -56.70106 3224 ft 90 kts 17°
2026-04-12 17:43 -36.74894 -56.69820 3249 ft 90 kts 17°
2026-04-12 17:44 -36.74315 -56.69534 3274 ft 90 kts 17°
2026-04-12 17:44 -36.73159 -56.68962 3326 ft 89 kts 17°
2026-04-12 17:44 -36.72582 -56.68676 3351 ft 89 kts 17°
2026-04-12 17:45 -36.71989 -56.68545 3382 ft 85 kts 351°
2026-04-12 17:45 -36.71401 -56.68553 3434 ft 84 kts 354°
2026-04-12 17:45 -36.70828 -56.68563 3488 ft 82 kts 353°
2026-04-12 17:45 -36.70250 -56.68579 3515 ft 84 kts 353°
2026-04-12 17:46 -36.69676 -56.68597 3574 ft 82 kts 353°
2026-04-12 17:46 -36.69099 -56.68617 3615 ft 84 kts 353°
2026-04-12 17:46 -36.68507 -56.68638 3661 ft 86 kts 353°
2026-04-12 17:46 -36.67904 -56.68658 3701 ft 88 kts 353°
2026-04-12 17:47 -36.67291 -56.68678 3737 ft 89 kts 353°
2026-04-12 17:47 -36.66672 -56.68699 3770 ft 90 kts 353°
2026-04-12 17:47 -36.66049 -56.68719 3799 ft 90 kts 353°
2026-04-12 17:47 -36.65424 -56.68741 3827 ft 90 kts 353°
2026-04-12 17:48 -36.64797 -56.68762 3854 ft 90 kts 353°
2026-04-12 17:48 -36.64168 -56.68783 3881 ft 91 kts 353°
2026-04-12 17:48 -36.63538 -56.68805 3906 ft 91 kts 353°
2026-04-12 17:48 -36.62910 -56.68826 3931 ft 91 kts 353°
2026-04-12 17:49 -36.62280 -56.68847 3956 ft 91 kts 353°
2026-04-12 17:49 -36.61651 -56.68869 3981 ft 91 kts 353°
2026-04-12 17:49 -36.61021 -56.68890 4006 ft 91 kts 353°
2026-04-12 17:49 -36.60393 -56.68912 4030 ft 91 kts 353°
2026-04-12 17:50 -36.59764 -56.68933 4055 ft 91 kts 353°
2026-04-12 17:50 -36.59135 -56.68955 4080 ft 91 kts 353°
2026-04-12 17:50 -36.58507 -56.68976 4105 ft 90 kts 353°
2026-04-12 17:50 -36.57881 -56.68997 4129 ft 90 kts 353°
2026-04-12 17:51 -36.57254 -56.69019 4153 ft 90 kts 353°
2026-04-12 17:51 -36.56628 -56.69040 4178 ft 90 kts 353°
2026-04-12 17:51 -36.56002 -56.69061 4202 ft 90 kts 353°
2026-04-12 17:51 -36.55378 -56.69082 4226 ft 90 kts 353°
2026-04-12 17:52 -36.54753 -56.69102 4251 ft 90 kts 353°
2026-04-12 17:52 -36.54131 -56.69150 4276 ft 89 kts 348°
2026-04-12 17:52 -36.53518 -56.69243 4300 ft 89 kts 347°
2026-04-12 17:52 -36.52906 -56.69342 4325 ft 89 kts 347°
2026-04-12 17:53 -36.52295 -56.69442 4351 ft 89 kts 347°
2026-04-12 17:53 -36.51685 -56.69542 4376 ft 89 kts 347°
2026-04-12 17:53 -36.51076 -56.69643 4402 ft 89 kts 347°
2026-04-12 17:53 -36.50473 -56.69742 4451 ft 86 kts 347°
2026-04-12 17:54 -36.49886 -56.69840 4495 ft 86 kts 347°
2026-04-12 17:54 -36.49291 -56.69939 4514 ft 87 kts 347°
2026-04-12 17:54 -36.48683 -56.70039 4517 ft 90 kts 347°
2026-04-12 17:54 -36.48060 -56.70141 4513 ft 91 kts 347°
2026-04-12 17:55 -36.47427 -56.70245 4506 ft 92 kts 347°
2026-04-12 17:55 -36.46790 -56.70349 4502 ft 93 kts 347°
2026-04-12 17:55 -36.46154 -56.70454 4501 ft 92 kts 347°
2026-04-12 17:55 -36.45519 -56.70559 4500 ft 92 kts 347°
2026-04-12 17:56 -36.44883 -56.70664 4500 ft 92 kts 347°
2026-04-12 17:56 -36.44247 -56.70769 4501 ft 92 kts 347°
2026-04-12 17:56 -36.43613 -56.70873 4501 ft 92 kts 347°
2026-04-12 17:56 -36.42977 -56.70978 4501 ft 92 kts 347°
2026-04-12 17:57 -36.42342 -56.71083 4501 ft 92 kts 347°
2026-04-12 17:57 -36.41704 -56.71188 4501 ft 92 kts 347°
2026-04-12 17:57 -36.41068 -56.71292 4501 ft 92 kts 347°
2026-04-12 17:57 -36.40431 -56.71397 4500 ft 92 kts 347°
2026-04-12 17:58 -36.39795 -56.71502 4500 ft 92 kts 347°
2026-04-12 17:58 -36.39162 -56.71606 4500 ft 92 kts 347°
2026-04-12 17:58 -36.38526 -56.71710 4501 ft 92 kts 347°
2026-04-12 17:58 -36.37891 -56.71814 4502 ft 92 kts 347°
2026-04-12 17:59 -36.37257 -56.71908 4503 ft 93 kts 353°
2026-04-12 17:59 -36.36715 -56.71515 4553 ft 92 kts 53°
2026-04-12 17:59 -36.36293 -56.71003 4662 ft 83 kts 21°
2026-04-12 17:59 -36.35812 -56.70603 4728 ft 84 kts 32°
2026-04-12 18:00 -36.35347 -56.70153 4775 ft 86 kts 33°
2026-04-12 18:00 -36.34875 -56.69686 4817 ft 88 kts 34°
2026-04-12 18:00 -36.34395 -56.69211 4855 ft 89 kts 34°
2026-04-12 18:00 -36.33911 -56.68730 4889 ft 90 kts 34°
2026-04-12 18:01 -36.33424 -56.68245 4921 ft 90 kts 34°
2026-04-12 18:01 -36.32932 -56.67756 4951 ft 91 kts 34°
2026-04-12 18:01 -36.32437 -56.67265 4980 ft 91 kts 34°
2026-04-12 18:01 -36.31942 -56.66773 5007 ft 92 kts 34°
2026-04-12 18:02 -36.31445 -56.66279 5034 ft 92 kts 34°
2026-04-12 18:02 -36.30949 -56.65786 5060 ft 92 kts 34°
2026-04-12 18:02 -36.30450 -56.65292 5085 ft 92 kts 34°
2026-04-12 18:02 -36.29952 -56.64797 5110 ft 92 kts 34°
2026-04-12 18:03 -36.29454 -56.64303 5135 ft 92 kts 34°
2026-04-12 18:03 -36.28956 -56.63809 5159 ft 92 kts 34°
2026-04-12 18:03 -36.28458 -56.63315 5184 ft 92 kts 34°
2026-04-12 18:03 -36.27961 -56.62822 5208 ft 92 kts 34°
2026-04-12 18:04 -36.27463 -56.62329 5232 ft 92 kts 34°
2026-04-12 18:04 -36.26967 -56.61837 5255 ft 92 kts 34°
2026-04-12 18:04 -36.26471 -56.61346 5279 ft 91 kts 34°
2026-04-12 18:04 -36.25976 -56.60856 5304 ft 91 kts 34°
2026-04-12 18:05 -36.25482 -56.60365 5328 ft 91 kts 33°
2026-04-12 18:05 -36.24988 -56.59877 5353 ft 91 kts 33°
2026-04-12 18:05 -36.24495 -56.59388 5378 ft 91 kts 33°
2026-04-12 18:05 -36.24002 -56.58901 5403 ft 91 kts 33°
2026-04-12 18:06 -36.23516 -56.58419 5448 ft 88 kts 33°
2026-04-12 18:06 -36.23040 -56.57949 5493 ft 88 kts 33°
2026-04-12 18:06 -36.22561 -56.57475 5516 ft 89 kts 33°
2026-04-12 18:06 -36.22070 -56.56990 5523 ft 92 kts 33°
2026-04-12 18:07 -36.21568 -56.56493 5519 ft 94 kts 34°
2026-04-12 18:07 -36.21057 -56.55986 5513 ft 95 kts 34°
2026-04-12 18:07 -36.20541 -56.55475 5509 ft 95 kts 34°
2026-04-12 18:07 -36.20024 -56.54963 5508 ft 95 kts 34°
2026-04-12 18:08 -36.19508 -56.54452 5507 ft 95 kts 34°
2026-04-12 18:08 -36.18990 -56.53940 5507 ft 95 kts 34°
2026-04-12 18:08 -36.18472 -56.53428 5507 ft 95 kts 34°
2026-04-12 18:08 -36.17954 -56.52916 5507 ft 95 kts 34°
2026-04-12 18:09 -36.17438 -56.52406 5508 ft 95 kts 34°
2026-04-12 18:09 -36.16920 -56.51894 5508 ft 95 kts 34°
2026-04-12 18:09 -36.16401 -56.51382 5507 ft 96 kts 34°
2026-04-12 18:09 -36.15883 -56.50870 5507 ft 96 kts 34°
2026-04-12 18:10 -36.15365 -56.50359 5508 ft 96 kts 34°
2026-04-12 18:10 -36.14846 -56.49847 5508 ft 96 kts 34°
2026-04-12 18:10 -36.14329 -56.49336 5508 ft 96 kts 34°
2026-04-12 18:10 -36.13809 -56.48824 5511 ft 96 kts 34°
2026-04-12 18:11 -36.13288 -56.48310 5512 ft 96 kts 34°
2026-04-12 18:11 -36.12765 -56.47794 5510 ft 97 kts 34°
2026-04-12 18:11 -36.12241 -56.47276 5505 ft 97 kts 34°
2026-04-12 18:11 -36.11719 -56.46761 5504 ft 96 kts 34°
2026-04-12 18:12 -36.11198 -56.46247 5506 ft 96 kts 34°
2026-04-12 18:12 -36.10680 -56.45737 5507 ft 95 kts 33°
2026-04-12 18:12 -36.10165 -56.45230 5517 ft 95 kts 33°
2026-04-12 18:12 -36.09645 -56.44719 5513 ft 96 kts 33°
2026-04-12 18:13 -36.09123 -56.44204 5512 ft 96 kts 33°
2026-04-12 18:13 -36.08599 -56.43688 5510 ft 97 kts 33°
2026-04-12 18:13 -36.08074 -56.43170 5508 ft 97 kts 33°
2026-04-12 18:13 -36.07550 -56.42654 5508 ft 97 kts 33°
2026-04-12 18:14 -36.07026 -56.42138 5508 ft 97 kts 33°
2026-04-12 18:14 -36.06502 -56.41622 5509 ft 96 kts 33°
2026-04-12 18:14 -36.05977 -56.41106 5509 ft 96 kts 33°
2026-04-12 18:14 -36.05453 -56.40590 5509 ft 96 kts 33°
2026-04-12 18:15 -36.04931 -56.40076 5509 ft 96 kts 33°
2026-04-12 18:15 -36.04407 -56.39561 5508 ft 96 kts 33°
2026-04-12 18:15 -36.03883 -56.39045 5508 ft 96 kts 33°
2026-04-12 18:15 -36.03361 -56.38532 5509 ft 96 kts 33°
2026-04-12 18:16 -36.02840 -56.38020 5516 ft 96 kts 33°
2026-04-12 18:16 -36.02320 -56.37509 5523 ft 96 kts 33°
2026-04-12 18:16 -36.01800 -56.36998 5525 ft 96 kts 33°
2026-04-12 18:16 -36.01277 -56.36484 5524 ft 96 kts 33°
2026-04-12 18:17 -36.00756 -56.35972 5528 ft 96 kts 33°
2026-04-12 18:17 -36.00237 -56.35463 5530 ft 96 kts 33°
2026-04-12 18:17 -35.99717 -56.34951 5531 ft 96 kts 33°
2026-04-12 18:17 -35.99196 -56.34440 5530 ft 96 kts 33°
2026-04-12 18:18 -35.98675 -56.33928 5530 ft 96 kts 33°
2026-04-12 18:18 -35.98153 -56.33416 5530 ft 96 kts 33°
2026-04-12 18:18 -35.97632 -56.32904 5530 ft 96 kts 33°
2026-04-12 18:18 -35.97110 -56.32392 5530 ft 96 kts 33°
2026-04-12 18:19 -35.96588 -56.31880 5529 ft 96 kts 33°
2026-04-12 18:19 -35.96065 -56.31367 5532 ft 96 kts 33°
2026-04-12 18:19 -35.95542 -56.30854 5530 ft 96 kts 33°
2026-04-12 18:19 -35.95018 -56.30340 5529 ft 96 kts 33°
2026-04-12 18:20 -35.94495 -56.29827 5529 ft 96 kts 33°
2026-04-12 18:20 -35.93972 -56.29315 5530 ft 96 kts 33°
2026-04-12 18:20 -35.93451 -56.28804 5531 ft 96 kts 33°
2026-04-12 18:20 -35.92931 -56.28294 5532 ft 96 kts 33°
2026-04-12 18:21 -35.92409 -56.27783 5531 ft 96 kts 33°
2026-04-12 18:21 -35.91889 -56.27273 5531 ft 96 kts 33°
2026-04-12 18:21 -35.91366 -56.26762 5532 ft 96 kts 33°
2026-04-12 18:21 -35.90845 -56.26251 5532 ft 96 kts 33°
2026-04-12 18:22 -35.90323 -56.25740 5532 ft 96 kts 33°
2026-04-12 18:22 -35.89802 -56.25230 5532 ft 96 kts 33°
2026-04-12 18:22 -35.89280 -56.24719 5532 ft 96 kts 33°
2026-04-12 18:22 -35.88756 -56.24207 5535 ft 97 kts 33°
2026-04-12 18:23 -35.88231 -56.23693 5532 ft 97 kts 33°
2026-04-12 18:23 -35.87706 -56.23179 5530 ft 97 kts 33°
2026-04-12 18:23 -35.87183 -56.22667 5529 ft 96 kts 33°
2026-04-12 18:23 -35.86658 -56.22154 5530 ft 96 kts 33°
2026-04-12 18:24 -35.86136 -56.21644 5531 ft 96 kts 33°
2026-04-12 18:24 -35.85613 -56.21133 5533 ft 96 kts 33°
2026-04-12 18:24 -35.85094 -56.20625 5536 ft 96 kts 33°
2026-04-12 18:24 -35.84573 -56.20116 5537 ft 96 kts 33°
2026-04-12 18:25 -35.84051 -56.19607 5538 ft 96 kts 33°
2026-04-12 18:25 -35.83530 -56.19097 5537 ft 96 kts 33°
2026-04-12 18:25 -35.83008 -56.18587 5537 ft 96 kts 33°
2026-04-12 18:25 -35.82486 -56.18078 5538 ft 96 kts 33°
2026-04-12 18:26 -35.81966 -56.17570 5539 ft 96 kts 33°
2026-04-12 18:26 -35.81444 -56.17060 5540 ft 96 kts 33°
2026-04-12 18:26 -35.80923 -56.16552 5541 ft 96 kts 33°
2026-04-12 18:26 -35.80400 -56.16042 5540 ft 96 kts 33°
2026-04-12 18:27 -35.79877 -56.15531 5540 ft 96 kts 33°
2026-04-12 18:27 -35.79353 -56.15020 5540 ft 96 kts 33°
2026-04-12 18:27 -35.78830 -56.14510 5540 ft 96 kts 33°
2026-04-12 18:27 -35.78307 -56.14000 5540 ft 96 kts 33°
2026-04-12 18:28 -35.77783 -56.13489 5540 ft 96 kts 33°
2026-04-12 18:28 -35.77260 -56.12979 5540 ft 96 kts 33°
2026-04-12 18:28 -35.76736 -56.12469 5541 ft 96 kts 33°
2026-04-12 18:28 -35.76213 -56.11958 5541 ft 96 kts 33°
2026-04-12 18:29 -35.75689 -56.11448 5541 ft 96 kts 33°
2026-04-12 18:29 -35.75165 -56.10938 5540 ft 96 kts 33°
2026-04-12 18:29 -35.74641 -56.10427 5541 ft 96 kts 33°
2026-04-12 18:29 -35.74115 -56.09915 5544 ft 97 kts 33°
2026-04-12 18:30 -35.73588 -56.09402 5542 ft 97 kts 33°
2026-04-12 18:30 -35.73061 -56.08888 5539 ft 97 kts 33°
2026-04-12 18:30 -35.72535 -56.08377 5539 ft 97 kts 33°
2026-04-12 18:30 -35.72009 -56.07865 5539 ft 96 kts 33°
2026-04-12 18:31 -35.71485 -56.07355 5540 ft 96 kts 33°
2026-04-12 18:31 -35.70961 -56.06845 5541 ft 96 kts 33°
2026-04-12 18:31 -35.70437 -56.06335 5542 ft 96 kts 33°
2026-04-12 18:31 -35.69913 -56.05826 5541 ft 96 kts 33°
2026-04-12 18:32 -35.69388 -56.05315 5540 ft 96 kts 33°
2026-04-12 18:32 -35.68863 -56.04805 5540 ft 96 kts 33°
2026-04-12 18:32 -35.68337 -56.04294 5540 ft 96 kts 33°
2026-04-12 18:32 -35.67814 -56.03785 5542 ft 96 kts 33°
2026-04-12 18:33 -35.67291 -56.03277 5542 ft 96 kts 33°
2026-04-12 18:33 -35.66767 -56.02768 5542 ft 96 kts 33°
2026-04-12 18:33 -35.66242 -56.02259 5542 ft 96 kts 33°
2026-04-12 18:33 -35.65719 -56.01750 5542 ft 96 kts 33°
2026-04-12 18:34 -35.65194 -56.01240 5541 ft 96 kts 33°
2026-04-12 18:34 -35.64669 -56.00731 5540 ft 96 kts 33°
2026-04-12 18:34 -35.64144 -56.00221 5539 ft 96 kts 33°
2026-04-12 18:34 -35.63619 -55.99712 5540 ft 96 kts 33°
2026-04-12 18:35 -35.63095 -55.99203 5540 ft 96 kts 33°
2026-04-12 18:35 -35.62571 -55.98695 5540 ft 96 kts 33°
2026-04-12 18:35 -35.62046 -55.98185 5540 ft 96 kts 33°
2026-04-12 18:35 -35.61521 -55.97677 5541 ft 96 kts 33°
2026-04-12 18:36 -35.61171 -55.97338 5541 ft 96 kts 33°
2026-04-12 18:36 -35.60996 -55.97168 5541 ft 96 kts 33°
2026-04-12 18:37 -35.58896 -55.95132 5539 ft 96 kts 33°
2026-04-12 18:37 -35.58372 -55.94624 5539 ft 96 kts 33°
2026-04-12 18:37 -35.57846 -55.94115 5539 ft 96 kts 33°
2026-04-12 18:37 -35.57321 -55.93606 5539 ft 96 kts 33°
2026-04-12 18:38 -35.56794 -55.93096 5541 ft 97 kts 33°
2026-04-12 18:38 -35.56266 -55.92585 5543 ft 97 kts 33°
2026-04-12 18:38 -35.55735 -55.92071 5543 ft 98 kts 33°
2026-04-12 18:38 -35.55204 -55.91556 5540 ft 98 kts 33°
2026-04-12 18:39 -35.54670 -55.91040 5538 ft 98 kts 33°
2026-04-12 18:39 -35.54139 -55.90525 5535 ft 97 kts 33°
2026-04-12 18:39 -35.53607 -55.90012 5538 ft 97 kts 33°
2026-04-12 18:39 -35.53078 -55.89500 5538 ft 97 kts 33°
2026-04-12 18:40 -35.52549 -55.88988 5537 ft 97 kts 33°
2026-04-12 18:40 -35.52020 -55.88477 5537 ft 97 kts 33°
2026-04-12 18:40 -35.51492 -55.87967 5538 ft 97 kts 33°
2026-04-12 18:40 -35.50965 -55.87458 5539 ft 97 kts 33°
2026-04-12 18:41 -35.50437 -55.86947 5539 ft 97 kts 33°
2026-04-12 18:41 -35.49912 -55.86440 5541 ft 96 kts 33°
2026-04-12 18:41 -35.49387 -55.85933 5542 ft 96 kts 33°
2026-04-12 18:41 -35.48863 -55.85426 5542 ft 96 kts 33°
2026-04-12 18:42 -35.48336 -55.84918 5541 ft 96 kts 33°
2026-04-12 18:42 -35.47812 -55.84411 5541 ft 96 kts 33°
2026-04-12 18:42 -35.47286 -55.83904 5541 ft 96 kts 33°
2026-04-12 18:43 -35.45707 -55.82380 5541 ft 96 kts 33°
2026-04-12 18:43 -35.45182 -55.81874 5538 ft 96 kts 33°
2026-04-12 18:43 -35.44659 -55.81369 5537 ft 96 kts 33°
2026-04-12 18:44 -35.44134 -55.80863 5529 ft 97 kts 33°
2026-04-12 18:44 -35.43600 -55.80349 5509 ft 98 kts 33°
2026-04-12 18:44 -35.43063 -55.79830 5500 ft 98 kts 33°
2026-04-12 18:44 -35.42529 -55.79315 5496 ft 98 kts 33°
2026-04-12 18:45 -35.41997 -55.78802 5496 ft 97 kts 33°
2026-04-12 18:45 -35.41468 -55.78292 5493 ft 97 kts 33°
2026-04-12 18:45 -35.40937 -55.77782 5488 ft 98 kts 32°
2026-04-12 18:45 -35.40404 -55.77268 5481 ft 98 kts 33°
2026-04-12 18:46 -35.39871 -55.76755 5479 ft 97 kts 32°
2026-04-12 18:46 -35.39341 -55.76245 5479 ft 97 kts 32°
2026-04-12 18:46 -35.38812 -55.75735 5480 ft 97 kts 32°
2026-04-12 18:46 -35.38283 -55.75226 5481 ft 97 kts 32°
2026-04-12 18:47 -35.37755 -55.74718 5482 ft 97 kts 32°
2026-04-12 18:47 -35.37227 -55.74210 5482 ft 97 kts 32°
2026-04-12 18:47 -35.36698 -55.73701 5482 ft 97 kts 32°
2026-04-12 18:47 -35.36169 -55.73193 5481 ft 97 kts 32°
2026-04-12 18:48 -35.35641 -55.72685 5481 ft 97 kts 32°
2026-04-12 18:48 -35.35111 -55.72175 5481 ft 97 kts 32°
2026-04-12 18:48 -35.34582 -55.71667 5482 ft 97 kts 32°
2026-04-12 18:48 -35.34052 -55.71158 5482 ft 97 kts 32°
2026-04-12 18:49 -35.33525 -55.70651 5494 ft 96 kts 32°
2026-04-12 18:49 -35.32999 -55.70146 5504 ft 96 kts 32°
2026-04-12 18:49 -35.32481 -55.69649 5537 ft 95 kts 32°
2026-04-12 18:49 -35.31964 -55.69153 5563 ft 95 kts 32°
2026-04-12 18:50 -35.31446 -55.68656 5590 ft 95 kts 32°
2026-04-12 18:50 -35.30929 -55.68159 5615 ft 95 kts 32°
2026-04-12 18:50 -35.30411 -55.67662 5640 ft 95 kts 32°
2026-04-12 18:50 -35.29893 -55.67165 5665 ft 95 kts 32°
2026-04-12 18:51 -35.29374 -55.66667 5689 ft 95 kts 32°
2026-04-12 18:51 -35.28857 -55.66171 5714 ft 95 kts 32°
2026-04-12 18:51 -35.28339 -55.65673 5738 ft 95 kts 32°
2026-04-12 18:51 -35.27821 -55.65177 5763 ft 95 kts 32°
2026-04-12 18:52 -35.27303 -55.64680 5787 ft 95 kts 32°
2026-04-12 18:52 -35.26786 -55.64184 5811 ft 95 kts 32°
2026-04-12 18:52 -35.26269 -55.63688 5835 ft 95 kts 32°
2026-04-12 18:52 -35.25752 -55.63193 5859 ft 95 kts 32°
2026-04-12 18:53 -35.25236 -55.62698 5883 ft 95 kts 32°
2026-04-12 18:53 -35.24719 -55.62203 5907 ft 94 kts 32°
2026-04-12 18:53 -35.24203 -55.61708 5932 ft 95 kts 32°
2026-04-12 18:53 -35.23686 -55.61213 5960 ft 95 kts 32°
2026-04-12 18:54 -35.23166 -55.60716 5989 ft 95 kts 32°
2026-04-12 18:54 -35.22646 -55.60218 6017 ft 95 kts 32°
2026-04-12 18:54 -35.22123 -55.59717 6043 ft 96 kts 32°
2026-04-12 18:54 -35.21600 -55.59217 6069 ft 96 kts 32°
2026-04-12 18:55 -35.21077 -55.58715 6095 ft 96 kts 32°
2026-04-12 18:55 -35.20552 -55.58213 6120 ft 96 kts 32°
2026-04-12 18:55 -35.20028 -55.57711 6145 ft 96 kts 32°
2026-04-12 18:55 -35.19503 -55.57209 6169 ft 96 kts 31°
2026-04-12 18:56 -35.18979 -55.56708 6194 ft 96 kts 31°
2026-04-12 18:56 -35.18454 -55.56205 6218 ft 96 kts 31°
2026-04-12 18:56 -35.17929 -55.55704 6243 ft 96 kts 31°
2026-04-12 18:56 -35.17405 -55.55203 6267 ft 96 kts 31°
2026-04-12 18:57 -35.16881 -55.54702 6291 ft 96 kts 31°
2026-04-12 18:57 -35.16357 -55.54201 6314 ft 96 kts 31°
2026-04-12 18:57 -35.15834 -55.53701 6339 ft 96 kts 31°
2026-04-12 18:57 -35.15311 -55.53202 6365 ft 96 kts 31°
2026-04-12 18:58 -35.14788 -55.52703 6390 ft 96 kts 31°
2026-04-12 18:58 -35.14265 -55.52203 6414 ft 96 kts 31°
2026-04-12 18:58 -35.13743 -55.51704 6438 ft 95 kts 31°
2026-04-12 18:58 -35.13221 -55.51207 6463 ft 95 kts 31°
2026-04-12 18:59 -35.12700 -55.50709 6487 ft 95 kts 31°
2026-04-12 18:59 -35.12177 -55.50210 6511 ft 95 kts 31°
2026-04-12 18:59 -35.11658 -55.49714 6535 ft 95 kts 31°
2026-04-12 18:59 -35.11136 -55.49216 6559 ft 95 kts 31°
2026-04-12 19:00 -35.10615 -55.48720 6583 ft 95 kts 31°
2026-04-12 19:00 -35.10095 -55.48224 6607 ft 95 kts 30°
2026-04-12 19:00 -35.09575 -55.47728 6631 ft 95 kts 30°
2026-04-12 19:00 -35.09055 -55.47232 6656 ft 95 kts 30°
2026-04-12 19:01 -35.08537 -55.46738 6680 ft 95 kts 30°
2026-04-12 19:01 -35.08017 -55.46242 6704 ft 95 kts 30°
2026-04-12 19:01 -35.07498 -55.45748 6728 ft 95 kts 30°
2026-04-12 19:01 -35.06980 -55.45255 6752 ft 95 kts 30°
2026-04-12 19:02 -35.06463 -55.44762 6776 ft 95 kts 30°
2026-04-12 19:02 -35.05946 -55.44269 6800 ft 95 kts 30°
2026-04-12 19:02 -35.05428 -55.43776 6824 ft 94 kts 30°
2026-04-12 19:02 -35.04910 -55.43283 6848 ft 94 kts 30°
2026-04-12 19:03 -35.04395 -55.42793 6872 ft 94 kts 30°
2026-04-12 19:03 -35.03879 -55.42301 6896 ft 94 kts 30°
2026-04-12 19:03 -35.03362 -55.41810 6920 ft 94 kts 30°
2026-04-12 19:03 -35.02847 -55.41320 6944 ft 94 kts 30°
2026-04-12 19:04 -35.02332 -55.40830 6968 ft 94 kts 30°
2026-04-12 19:04 -35.01818 -55.40340 6992 ft 94 kts 30°
2026-04-12 19:04 -35.01303 -55.39851 7016 ft 94 kts 30°
2026-04-12 19:04 -35.00791 -55.39364 7039 ft 94 kts 30°
2026-04-12 19:05 -35.00277 -55.38875 7063 ft 94 kts 30°
2026-04-12 19:05 -34.99763 -55.38386 7087 ft 94 kts 29°
2026-04-12 19:05 -34.99250 -55.37899 7111 ft 94 kts 29°
2026-04-12 19:05 -34.98739 -55.37413 7135 ft 94 kts 29°
2026-04-12 19:06 -34.98227 -55.36927 7159 ft 93 kts 29°
2026-04-12 19:06 -34.97716 -55.36441 7183 ft 93 kts 29°
2026-04-12 19:06 -34.97205 -55.35956 7208 ft 93 kts 29°
2026-04-12 19:06 -34.96695 -55.35471 7232 ft 93 kts 29°
2026-04-12 19:07 -34.96184 -55.34987 7256 ft 93 kts 29°
2026-04-12 19:07 -34.95676 -55.34504 7281 ft 93 kts 29°
2026-04-12 19:07 -34.95168 -55.34021 7305 ft 93 kts 29°
2026-04-12 19:07 -34.94658 -55.33537 7329 ft 93 kts 29°
2026-04-12 19:08 -34.94151 -55.33056 7353 ft 93 kts 29°
2026-04-12 19:08 -34.93644 -55.32575 7377 ft 93 kts 29°
2026-04-12 19:08 -34.93134 -55.32092 7402 ft 93 kts 29°
2026-04-12 19:08 -34.92636 -55.31618 7452 ft 90 kts 28°
2026-04-12 19:09 -34.92146 -55.31155 7490 ft 89 kts 27°
2026-04-12 19:09 -34.91653 -55.30688 7508 ft 91 kts 28°
2026-04-12 19:09 -34.91147 -55.30208 7514 ft 94 kts 28°
2026-04-12 19:09 -34.90628 -55.29715 7511 ft 96 kts 28°
2026-04-12 19:10 -34.90102 -55.29215 7505 ft 97 kts 29°
2026-04-12 19:10 -34.89569 -55.28707 7499 ft 98 kts 29°
2026-04-12 19:10 -34.89033 -55.28198 7495 ft 98 kts 29°
2026-04-12 19:10 -34.88498 -55.27688 7491 ft 98 kts 29°
2026-04-12 19:11 -34.87919 -55.27304 7497 ft 93 kts 12°
2026-04-12 19:11 -34.87323 -55.27012 7494 ft 93 kts 11°
2026-04-12 19:11 -34.86724 -55.26730 7492 ft 93 kts 10°
2026-04-12 19:11 -34.86119 -55.26447 7491 ft 93 kts 10°
2026-04-12 19:12 -34.85517 -55.26168 7491 ft 93 kts 10°
2026-04-12 19:12 -34.84916 -55.25889 7491 ft 93 kts 10°
2026-04-12 19:12 -34.84313 -55.25611 7491 ft 93 kts 10°
2026-04-12 19:12 -34.83713 -55.25333 7491 ft 93 kts 10°
2026-04-12 19:13 -34.83111 -55.25054 7491 ft 93 kts 10°
2026-04-12 19:13 -34.82510 -55.24776 7491 ft 93 kts 10°
2026-04-12 19:13 -34.81909 -55.24498 7491 ft 93 kts 10°
2026-04-12 19:13 -34.81307 -55.24220 7490 ft 93 kts 10°
2026-04-12 19:14 -34.80705 -55.23941 7490 ft 93 kts 10°
2026-04-12 19:14 -34.80103 -55.23663 7491 ft 93 kts 10°
2026-04-12 19:14 -34.79503 -55.23385 7493 ft 93 kts 10°
2026-04-12 19:14 -34.78902 -55.23107 7493 ft 93 kts 10°
2026-04-12 19:15 -34.78301 -55.22828 7493 ft 93 kts 10°
2026-04-12 19:15 -34.77704 -55.22536 7491 ft 95 kts 18°
2026-04-12 19:15 -34.77185 -55.22026 7519 ft 96 kts 33°
2026-04-12 19:15 -34.76688 -55.21473 7507 ft 98 kts 34°
2026-04-12 19:16 -34.76187 -55.20901 7500 ft 99 kts 35°
2026-04-12 19:16 -34.75687 -55.20326 7495 ft 99 kts 35°
2026-04-12 19:16 -34.75186 -55.19748 7492 ft 99 kts 35°
2026-04-12 19:16 -34.74687 -55.19172 7491 ft 99 kts 35°
2026-04-12 19:17 -34.74188 -55.18596 7491 ft 99 kts 35°
2026-04-12 19:17 -34.73690 -55.18021 7491 ft 99 kts 35°
2026-04-12 19:17 -34.73192 -55.17446 7492 ft 99 kts 35°
2026-04-12 19:17 -34.72695 -55.16874 7492 ft 99 kts 35°
2026-04-12 19:18 -34.72198 -55.16300 7492 ft 99 kts 35°
2026-04-12 19:18 -34.71700 -55.15726 7492 ft 99 kts 35°
2026-04-12 19:18 -34.71204 -55.15154 7492 ft 99 kts 35°
2026-04-12 19:18 -34.70705 -55.14579 7492 ft 99 kts 35°
2026-04-12 19:19 -34.70208 -55.14005 7491 ft 99 kts 35°
2026-04-12 19:19 -34.69711 -55.13433 7491 ft 99 kts 35°
2026-04-12 19:19 -34.69213 -55.12858 7491 ft 99 kts 35°
2026-04-12 19:19 -34.68716 -55.12285 7491 ft 99 kts 35°
2026-04-12 19:20 -34.68217 -55.11711 7491 ft 99 kts 35°
2026-04-12 19:20 -34.67720 -55.11138 7491 ft 99 kts 35°
2026-04-12 19:20 -34.67221 -55.10564 7491 ft 99 kts 35°
2026-04-12 19:20 -34.66724 -55.09991 7491 ft 99 kts 35°
2026-04-12 19:21 -34.66226 -55.09418 7490 ft 99 kts 35°
2026-04-12 19:21 -34.65729 -55.08845 7490 ft 99 kts 35°
2026-04-12 19:21 -34.65231 -55.08271 7490 ft 99 kts 35°
2026-04-12 19:21 -34.64733 -55.07698 7490 ft 99 kts 36°
2026-04-12 19:22 -34.64234 -55.07124 7487 ft 99 kts 36°
2026-04-12 19:22 -34.63735 -55.06547 7485 ft 99 kts 36°
2026-04-12 19:22 -34.63228 -55.05986 7483 ft 97 kts 27°
2026-04-12 19:22 -34.62664 -55.05557 7489 ft 95 kts 21°
2026-04-12 19:23 -34.62093 -55.05152 7488 ft 95 kts 20°
2026-04-12 19:23 -34.61519 -55.04750 7489 ft 95 kts 20°
2026-04-12 19:23 -34.60945 -55.04351 7490 ft 95 kts 20°
2026-04-12 19:23 -34.60370 -55.03951 7489 ft 95 kts 20°
2026-04-12 19:24 -34.59794 -55.03551 7489 ft 96 kts 20°
2026-04-12 19:24 -34.59218 -55.03152 7489 ft 96 kts 20°
2026-04-12 19:24 -34.58643 -55.02753 7489 ft 96 kts 20°
2026-04-12 19:24 -34.58068 -55.02355 7489 ft 96 kts 20°
2026-04-12 19:25 -34.57492 -55.01956 7489 ft 96 kts 20°
2026-04-12 19:25 -34.56916 -55.01557 7489 ft 96 kts 20°
2026-04-12 19:25 -34.56341 -55.01159 7489 ft 96 kts 20°
2026-04-12 19:25 -34.55765 -55.00760 7489 ft 96 kts 20°
2026-04-12 19:26 -34.55188 -55.00360 7489 ft 96 kts 20°
2026-04-12 19:26 -34.54613 -54.99963 7489 ft 96 kts 20°
2026-04-12 19:26 -34.54036 -54.99563 7489 ft 96 kts 20°
2026-04-12 19:26 -34.53461 -54.99165 7489 ft 96 kts 20°
2026-04-12 19:27 -34.52885 -54.98767 7489 ft 96 kts 20°
2026-04-12 19:27 -34.52308 -54.98368 7489 ft 96 kts 20°
2026-04-12 19:27 -34.51733 -54.97970 7489 ft 96 kts 20°
2026-04-12 19:27 -34.51158 -54.97572 7489 ft 96 kts 20°
2026-04-12 19:28 -34.50582 -54.97174 7489 ft 96 kts 20°
2026-04-12 19:28 -34.50004 -54.96774 7489 ft 96 kts 20°
2026-04-12 19:28 -34.49428 -54.96376 7489 ft 96 kts 20°
2026-04-12 19:28 -34.48852 -54.95978 7489 ft 96 kts 20°
2026-04-12 19:29 -34.48276 -54.95580 7489 ft 96 kts 20°
2026-04-12 19:29 -34.47700 -54.95182 7489 ft 96 kts 20°
2026-04-12 19:29 -34.47124 -54.94784 7489 ft 96 kts 20°
2026-04-12 19:29 -34.46548 -54.94387 7489 ft 96 kts 20°
2026-04-12 19:30 -34.45972 -54.93989 7489 ft 96 kts 20°
2026-04-12 19:30 -34.45396 -54.93591 7489 ft 96 kts 20°
2026-04-12 19:30 -34.44820 -54.93193 7490 ft 96 kts 20°
2026-04-12 19:30 -34.44243 -54.92795 7492 ft 95 kts 20°
2026-04-12 19:31 -34.43669 -54.92399 7492 ft 95 kts 20°
2026-04-12 19:31 -34.43092 -54.92001 7492 ft 96 kts 20°
2026-04-12 19:31 -34.42516 -54.91603 7491 ft 96 kts 20°
2026-04-12 19:31 -34.41939 -54.91205 7491 ft 96 kts 20°
2026-04-12 19:32 -34.41361 -54.90807 7491 ft 96 kts 20°
2026-04-12 19:32 -34.40785 -54.90410 7491 ft 96 kts 20°
2026-04-12 19:32 -34.40208 -54.90012 7491 ft 96 kts 20°
2026-04-12 19:32 -34.39633 -54.89615 7491 ft 96 kts 20°
2026-04-12 19:33 -34.39055 -54.89217 7491 ft 96 kts 20°
2026-04-12 19:33 -34.38478 -54.88820 7491 ft 96 kts 20°
2026-04-12 19:33 -34.37902 -54.88423 7491 ft 96 kts 20°
2026-04-12 19:33 -34.37325 -54.88025 7491 ft 96 kts 20°
2026-04-12 19:34 -34.36748 -54.87627 7491 ft 96 kts 20°
2026-04-12 19:34 -34.36171 -54.87230 7491 ft 96 kts 20°
2026-04-12 19:34 -34.35595 -54.86833 7490 ft 96 kts 20°
2026-04-12 19:34 -34.35016 -54.86435 7490 ft 96 kts 20°
2026-04-12 19:35 -34.34440 -54.86038 7490 ft 96 kts 20°
2026-04-12 19:35 -34.33863 -54.85641 7490 ft 96 kts 20°
2026-04-12 19:35 -34.33286 -54.85244 7490 ft 96 kts 20°
2026-04-12 19:35 -34.32708 -54.84846 7490 ft 96 kts 20°
2026-04-12 19:36 -34.32129 -54.84448 7489 ft 96 kts 20°
2026-04-12 19:36 -34.31551 -54.84051 7488 ft 96 kts 20°
2026-04-12 19:36 -34.30974 -54.83654 7486 ft 96 kts 20°
2026-04-12 19:36 -34.30394 -54.83255 7486 ft 96 kts 20°
2026-04-12 19:37 -34.29817 -54.82858 7486 ft 96 kts 20°
2026-04-12 19:37 -34.29239 -54.82461 7487 ft 96 kts 20°
2026-04-12 19:37 -34.28663 -54.82065 7487 ft 96 kts 20°
2026-04-12 19:37 -34.28084 -54.81667 7487 ft 96 kts 20°
2026-04-12 19:38 -34.27507 -54.81270 7487 ft 96 kts 20°
2026-04-12 19:38 -34.26929 -54.80873 7486 ft 96 kts 20°
2026-04-12 19:38 -34.26351 -54.80476 7485 ft 96 kts 20°
2026-04-12 19:38 -34.25773 -54.80079 7485 ft 96 kts 20°
2026-04-12 19:39 -34.25195 -54.79682 7485 ft 96 kts 20°
2026-04-12 19:39 -34.24617 -54.79285 7485 ft 96 kts 20°
2026-04-12 19:39 -34.24039 -54.78888 7484 ft 96 kts 20°
2026-04-12 19:39 -34.23462 -54.78492 7484 ft 96 kts 20°
2026-04-12 19:40 -34.22885 -54.78096 7484 ft 96 kts 20°
2026-04-12 19:40 -34.22307 -54.77699 7483 ft 96 kts 20°
2026-04-12 19:40 -34.21730 -54.77302 7483 ft 96 kts 20°
2026-04-12 19:40 -34.21153 -54.76905 7482 ft 96 kts 20°
2026-04-12 19:41 -34.20580 -54.76496 7481 ft 97 kts 26°
2026-04-12 19:41 -34.20051 -54.75987 7492 ft 97 kts 31°
2026-04-12 19:41 -34.19532 -54.75456 7487 ft 98 kts 32°
2026-04-12 19:41 -34.19015 -54.74917 7484 ft 99 kts 33°
2026-04-12 19:42 -34.18496 -54.74374 7482 ft 99 kts 33°
2026-04-12 19:42 -34.17980 -54.73832 7481 ft 99 kts 33°
2026-04-12 19:42 -34.17463 -54.73289 7481 ft 99 kts 33°
2026-04-12 19:43 -34.16431 -54.72205 7481 ft 99 kts 33°
2026-04-12 19:43 -34.15916 -54.71663 7481 ft 98 kts 33°
2026-04-12 19:43 -34.15400 -54.71121 7481 ft 98 kts 33°
2026-04-12 19:43 -34.14885 -54.70580 7481 ft 98 kts 33°
2026-04-12 19:44 -34.14368 -54.70038 7481 ft 99 kts 33°
2026-04-12 19:44 -34.13853 -54.69497 7481 ft 99 kts 33°
2026-04-12 19:44 -34.13338 -54.68956 7481 ft 99 kts 33°
2026-04-12 19:44 -34.12822 -54.68414 7481 ft 99 kts 33°
2026-04-12 19:45 -34.12306 -54.67873 7481 ft 99 kts 33°
2026-04-12 19:45 -34.11789 -54.67331 7481 ft 99 kts 33°
2026-04-12 19:45 -34.11274 -54.66790 7481 ft 99 kts 33°
2026-04-12 19:45 -34.10758 -54.66249 7481 ft 99 kts 33°
2026-04-12 19:46 -34.10242 -54.65708 7480 ft 99 kts 33°
2026-04-12 19:46 -34.09727 -54.65167 7480 ft 99 kts 32°
2026-04-12 19:46 -34.09209 -54.64625 7479 ft 99 kts 32°
2026-04-12 19:46 -34.08694 -54.64084 7479 ft 99 kts 32°
2026-04-12 19:47 -34.08177 -54.63543 7479 ft 99 kts 32°
2026-04-12 19:47 -34.07662 -54.63003 7479 ft 98 kts 32°
2026-04-12 19:47 -34.07146 -54.62462 7480 ft 98 kts 32°
2026-04-12 19:47 -34.06629 -54.61920 7480 ft 99 kts 32°
2026-04-12 19:48 -34.06114 -54.61381 7479 ft 99 kts 32°
2026-04-12 19:48 -34.05598 -54.60840 7479 ft 99 kts 32°
2026-04-12 19:48 -34.05081 -54.60300 7479 ft 99 kts 32°
2026-04-12 19:48 -34.04565 -54.59759 7479 ft 99 kts 32°
2026-04-12 19:49 -34.04048 -54.59218 7479 ft 99 kts 32°
2026-04-12 19:49 -34.03532 -54.58678 7479 ft 99 kts 32°
2026-04-12 19:49 -34.03016 -54.58138 7479 ft 99 kts 32°
2026-04-12 19:49 -34.02499 -54.57597 7479 ft 99 kts 32°
2026-04-12 19:50 -34.01983 -54.57058 7479 ft 99 kts 32°
2026-04-12 19:50 -34.01466 -54.56516 7479 ft 99 kts 32°
2026-04-12 19:50 -34.00949 -54.55977 7479 ft 99 kts 32°
2026-04-12 19:50 -34.00433 -54.55437 7479 ft 99 kts 32°
2026-04-12 19:51 -33.99917 -54.54897 7479 ft 99 kts 32°
2026-04-12 19:51 -33.99400 -54.54357 7479 ft 99 kts 32°
2026-04-12 19:51 -33.98884 -54.53817 7479 ft 99 kts 32°
2026-04-12 19:51 -33.98367 -54.53278 7479 ft 99 kts 32°
2026-04-12 19:52 -33.97851 -54.52738 7479 ft 99 kts 32°
2026-04-12 19:52 -33.97334 -54.52198 7479 ft 99 kts 32°
2026-04-12 19:52 -33.96818 -54.51659 7479 ft 99 kts 32°
2026-04-12 19:52 -33.96301 -54.51119 7479 ft 99 kts 32°
2026-04-12 19:53 -33.95784 -54.50580 7479 ft 99 kts 32°
2026-04-12 19:53 -33.95267 -54.50040 7479 ft 99 kts 32°
2026-04-12 19:53 -33.94750 -54.49501 7479 ft 99 kts 32°
2026-04-12 19:53 -33.94233 -54.48962 7479 ft 99 kts 32°
2026-04-12 19:54 -33.93717 -54.48423 7478 ft 99 kts 32°
2026-04-12 19:54 -33.93200 -54.47883 7477 ft 99 kts 32°
2026-04-12 19:54 -33.92682 -54.47343 7477 ft 99 kts 32°
2026-04-12 19:54 -33.92165 -54.46804 7478 ft 98 kts 32°
2026-04-12 19:55 -33.91648 -54.46265 7476 ft 99 kts 32°
2026-04-12 19:55 -33.91130 -54.45726 7476 ft 99 kts 32°
2026-04-12 19:55 -33.90614 -54.45188 7476 ft 98 kts 32°
2026-04-12 19:55 -33.90098 -54.44649 7476 ft 98 kts 32°
2026-04-12 19:56 -33.89582 -54.44112 7477 ft 98 kts 32°
2026-04-12 19:56 -33.89066 -54.43575 7481 ft 98 kts 32°
2026-04-12 19:56 -33.88552 -54.43039 7485 ft 98 kts 32°
2026-04-12 19:56 -33.88036 -54.42503 7480 ft 99 kts 32°
2026-04-12 19:57 -33.87519 -54.41964 7478 ft 99 kts 32°
2026-04-12 19:57 -33.87000 -54.41424 7476 ft 99 kts 32°
2026-04-12 19:57 -33.86482 -54.40885 7476 ft 99 kts 32°
2026-04-12 19:57 -33.85965 -54.40346 7476 ft 99 kts 32°
2026-04-12 19:58 -33.85448 -54.39808 7476 ft 98 kts 32°
2026-04-12 19:58 -33.84932 -54.39271 7476 ft 98 kts 32°
2026-04-12 19:58 -33.84415 -54.38734 7476 ft 98 kts 32°
2026-04-12 19:58 -33.83899 -54.38197 7477 ft 98 kts 32°
2026-04-12 19:59 -33.83383 -54.37661 7476 ft 98 kts 32°
2026-04-12 19:59 -33.82866 -54.37124 7475 ft 99 kts 32°
2026-04-12 19:59 -33.82349 -54.36586 7476 ft 98 kts 32°
2026-04-12 19:59 -33.81832 -54.36048 7477 ft 98 kts 32°
2026-04-12 20:00 -33.81314 -54.35510 7477 ft 99 kts 32°
2026-04-12 20:00 -33.80797 -54.34973 7476 ft 99 kts 32°
2026-04-12 20:00 -33.80280 -54.34436 7476 ft 99 kts 32°
2026-04-12 20:00 -33.79762 -54.33898 7476 ft 99 kts 32°
2026-04-12 20:01 -33.79244 -54.33360 7476 ft 99 kts 32°
2026-04-12 20:01 -33.78726 -54.32822 7476 ft 99 kts 32°
2026-04-12 20:01 -33.78209 -54.32285 7476 ft 99 kts 32°
2026-04-12 20:01 -33.77691 -54.31748 7476 ft 99 kts 32°
2026-04-12 20:02 -33.77173 -54.31211 7476 ft 99 kts 32°
2026-04-12 20:02 -33.76655 -54.30673 7476 ft 99 kts 32°
2026-04-12 20:02 -33.76138 -54.30136 7476 ft 99 kts 32°
2026-04-12 20:02 -33.75619 -54.29598 7476 ft 99 kts 32°
2026-04-12 20:03 -33.75101 -54.29061 7476 ft 99 kts 32°
2026-04-12 20:03 -33.74585 -54.28525 7479 ft 98 kts 32°
2026-04-12 20:03 -33.74070 -54.27991 7475 ft 98 kts 32°
2026-04-12 20:03 -33.73554 -54.27457 7475 ft 98 kts 32°
2026-04-12 20:04 -33.73039 -54.26923 7475 ft 98 kts 31°
2026-04-12 20:04 -33.72525 -54.26390 7475 ft 98 kts 31°
2026-04-12 20:04 -33.72012 -54.25859 7475 ft 98 kts 31°
2026-04-12 20:04 -33.71500 -54.25327 7476 ft 97 kts 31°
2026-04-12 20:05 -33.70987 -54.24797 7475 ft 98 kts 31°
2026-04-12 20:05 -33.70474 -54.24265 7474 ft 97 kts 31°
2026-04-12 20:05 -33.69963 -54.23736 7475 ft 97 kts 31°
2026-04-12 20:05 -33.69450 -54.23205 7475 ft 97 kts 31°
2026-04-12 20:06 -33.68940 -54.22676 7475 ft 97 kts 31°
2026-04-12 20:06 -33.68429 -54.22146 7476 ft 97 kts 31°
2026-04-12 20:06 -33.67918 -54.21616 7475 ft 97 kts 31°
2026-04-12 20:06 -33.67404 -54.21088 7475 ft 97 kts 28°
2026-04-12 20:07 -33.66868 -54.20611 7476 ft 96 kts 26°
2026-04-12 20:07 -33.66326 -54.20144 7475 ft 96 kts 25°
2026-04-12 20:07 -33.65783 -54.19680 7475 ft 96 kts 25°
2026-04-12 20:07 -33.65241 -54.19218 7475 ft 96 kts 25°
2026-04-12 20:08 -33.64699 -54.18757 7475 ft 96 kts 25°
2026-04-12 20:08 -33.64155 -54.18294 7475 ft 96 kts 25°
2026-04-12 20:08 -33.63613 -54.17833 7475 ft 96 kts 25°
2026-04-12 20:08 -33.63070 -54.17371 7475 ft 96 kts 25°
2026-04-12 20:09 -33.62527 -54.16910 7475 ft 96 kts 25°
2026-04-12 20:09 -33.61985 -54.16449 7475 ft 96 kts 25°
2026-04-12 20:09 -33.61442 -54.15987 7475 ft 96 kts 25°
2026-04-12 20:09 -33.60897 -54.15525 7475 ft 96 kts 25°
2026-04-12 20:10 -33.60355 -54.15064 7475 ft 96 kts 25°
2026-04-12 20:10 -33.59811 -54.14602 7475 ft 96 kts 25°
2026-04-12 20:10 -33.59268 -54.14141 7475 ft 96 kts 25°
2026-04-12 20:10 -33.58725 -54.13680 7476 ft 96 kts 25°
2026-04-12 20:11 -33.58182 -54.13219 7477 ft 96 kts 25°
2026-04-12 20:11 -33.57639 -54.12758 7477 ft 96 kts 25°
2026-04-12 20:11 -33.57097 -54.12298 7475 ft 96 kts 25°
2026-04-12 20:11 -33.56552 -54.11836 7475 ft 96 kts 25°
2026-04-12 20:12 -33.56009 -54.11375 7475 ft 96 kts 25°
2026-04-12 20:12 -33.55464 -54.10913 7475 ft 96 kts 25°
2026-04-12 20:12 -33.54920 -54.10452 7475 ft 96 kts 25°
2026-04-12 20:12 -33.54377 -54.09991 7475 ft 96 kts 25°
2026-04-12 20:13 -33.53832 -54.09529 7475 ft 96 kts 25°
2026-04-12 20:13 -33.53289 -54.09069 7475 ft 96 kts 25°
2026-04-12 20:13 -33.52200 -54.08146 7475 ft 96 kts 25°
2026-04-12 20:14 -33.51656 -54.07685 7475 ft 96 kts 25°
2026-04-12 20:14 -33.51112 -54.07224 7475 ft 96 kts 25°
2026-04-12 20:14 -33.50568 -54.06763 7475 ft 96 kts 25°
2026-04-12 20:14 -33.50023 -54.06302 7475 ft 96 kts 25°
2026-04-12 20:15 -33.49480 -54.05842 7475 ft 96 kts 25°
2026-04-12 20:15 -33.48934 -54.05380 7475 ft 96 kts 25°
2026-04-12 20:15 -33.48390 -54.04919 7475 ft 96 kts 25°
2026-04-12 20:15 -33.47845 -54.04458 7475 ft 96 kts 25°
2026-04-12 20:16 -33.47302 -54.03998 7475 ft 96 kts 25°
2026-04-12 20:16 -33.46757 -54.03537 7475 ft 96 kts 25°
2026-04-12 20:16 -33.46213 -54.03077 7475 ft 96 kts 25°
2026-04-12 20:16 -33.45667 -54.02616 7475 ft 96 kts 25°
2026-04-12 20:17 -33.45123 -54.02155 7475 ft 96 kts 25°
2026-04-12 20:17 -33.44579 -54.01695 7475 ft 96 kts 25°
2026-04-12 20:17 -33.44035 -54.01236 7475 ft 96 kts 25°
2026-04-12 20:17 -33.43491 -54.00775 7475 ft 96 kts 25°
2026-04-12 20:18 -33.42947 -54.00316 7475 ft 96 kts 25°
2026-04-12 20:18 -33.42403 -53.99856 7475 ft 96 kts 25°
2026-04-12 20:18 -33.41859 -53.99397 7475 ft 96 kts 25°
2026-04-12 20:18 -33.41315 -53.98937 7475 ft 96 kts 25°
2026-04-12 20:19 -33.40769 -53.98476 7475 ft 96 kts 25°
2026-04-12 20:19 -33.40224 -53.98015 7475 ft 96 kts 25°
2026-04-12 20:19 -33.39680 -53.97557 7474 ft 96 kts 25°
2026-04-12 20:19 -33.39135 -53.97096 7473 ft 96 kts 25°
2026-04-12 20:20 -33.38589 -53.96635 7474 ft 96 kts 25°
2026-04-12 20:20 -33.38042 -53.96173 7474 ft 96 kts 25°
2026-04-12 20:20 -33.37496 -53.95712 7474 ft 96 kts 25°
2026-04-12 20:20 -33.36950 -53.95252 7474 ft 96 kts 25°
2026-04-12 20:21 -33.36404 -53.94791 7474 ft 96 kts 25°
2026-04-12 20:21 -33.35857 -53.94330 7474 ft 96 kts 25°
2026-04-12 20:21 -33.35310 -53.93869 7474 ft 96 kts 25°
2026-04-12 20:21 -33.34763 -53.93408 7474 ft 96 kts 25°
2026-04-12 20:22 -33.34218 -53.92948 7474 ft 96 kts 25°
2026-04-12 20:22 -33.33671 -53.92487 7474 ft 96 kts 25°
2026-04-12 20:22 -33.33124 -53.92026 7474 ft 96 kts 25°
2026-04-12 20:22 -33.32577 -53.91565 7474 ft 96 kts 25°
2026-04-12 20:23 -33.32031 -53.91105 7474 ft 96 kts 25°
2026-04-12 20:23 -33.31485 -53.90645 7474 ft 96 kts 25°
2026-04-12 20:23 -33.30940 -53.90185 7476 ft 96 kts 25°
2026-04-12 20:23 -33.30396 -53.89727 7476 ft 96 kts 25°
2026-04-12 20:24 -33.29854 -53.89271 7475 ft 96 kts 25°
2026-04-12 20:24 -33.29311 -53.88814 7475 ft 96 kts 25°
2026-04-12 20:24 -33.28768 -53.88357 7476 ft 96 kts 25°
2026-04-12 20:24 -33.28226 -53.87901 7476 ft 95 kts 25°
2026-04-12 20:25 -33.27685 -53.87445 7476 ft 95 kts 25°
2026-04-12 20:25 -33.27143 -53.86990 7476 ft 96 kts 25°
2026-04-12 20:25 -33.26601 -53.86533 7476 ft 96 kts 25°
2026-04-12 20:25 -33.26058 -53.86076 7476 ft 96 kts 25°
2026-04-12 20:26 -33.25516 -53.85620 7476 ft 96 kts 25°
2026-04-12 20:26 -33.24974 -53.85164 7476 ft 96 kts 25°
2026-04-12 20:26 -33.24433 -53.84709 7476 ft 96 kts 25°
2026-04-12 20:26 -33.23890 -53.84253 7476 ft 96 kts 25°
2026-04-12 20:27 -33.23349 -53.83798 7476 ft 96 kts 25°
2026-04-12 20:27 -33.22819 -53.83353 7476 ft 96 kts 25°
2026-04-12 20:27 -33.22272 -53.82893 7476 ft 96 kts 25°
2026-04-12 20:27 -33.21721 -53.82429 7476 ft 95 kts 25°
2026-04-12 20:28 -33.21180 -53.81974 7476 ft 95 kts 25°
2026-04-12 20:28 -33.20638 -53.81517 7476 ft 95 kts 25°
2026-04-12 20:28 -33.20081 -53.81106 7477 ft 94 kts 20°
2026-04-12 20:28 -33.19526 -53.80718 7476 ft 94 kts 19°
2026-04-12 20:29 -33.18987 -53.80345 7476 ft 94 kts 19°
2026-04-12 20:29 -33.18390 -53.79932 7477 ft 94 kts 19°
2026-04-12 20:29 -33.17854 -53.79563 7477 ft 94 kts 19°
2026-04-12 20:29 -33.17283 -53.79170 7477 ft 94 kts 19°
2026-04-12 20:30 -33.16707 -53.78772 7477 ft 94 kts 19°
2026-04-12 20:30 -33.16145 -53.78386 7485 ft 93 kts 19°
2026-04-12 20:30 -33.15592 -53.78004 7496 ft 92 kts 19°
2026-04-12 20:30 -33.15036 -53.77623 7501 ft 92 kts 19°
2026-04-12 20:31 -33.14477 -53.77238 7503 ft 93 kts 19°
2026-04-12 20:31 -33.13918 -53.76853 7503 ft 93 kts 19°
2026-04-12 20:31 -33.13357 -53.76467 7502 ft 94 kts 19°
2026-04-12 20:31 -33.12797 -53.76082 7501 ft 94 kts 19°
2026-04-12 20:32 -33.12230 -53.75691 7500 ft 94 kts 19°
2026-04-12 20:32 -33.11667 -53.75304 7500 ft 94 kts 19°
2026-04-12 20:32 -33.11107 -53.74919 7500 ft 94 kts 19°
2026-04-12 20:32 -33.10545 -53.74533 7500 ft 93 kts 19°
2026-04-12 20:33 -33.09981 -53.74145 7501 ft 93 kts 19°
2026-04-12 20:33 -33.09418 -53.73758 7501 ft 93 kts 19°
2026-04-12 20:33 -33.08857 -53.73372 7501 ft 93 kts 19°
2026-04-12 20:33 -33.08296 -53.72986 7501 ft 93 kts 19°
2026-04-12 20:34 -33.07734 -53.72601 7501 ft 93 kts 19°
2026-04-12 20:34 -33.07173 -53.72215 7501 ft 93 kts 19°
2026-04-12 20:34 -33.06613 -53.71830 7501 ft 93 kts 19°
2026-04-12 20:34 -33.06052 -53.71445 7501 ft 93 kts 19°
2026-04-12 20:35 -33.05491 -53.71060 7501 ft 93 kts 19°
2026-04-12 20:35 -33.04931 -53.70675 7501 ft 93 kts 19°
2026-04-12 20:35 -33.04373 -53.70292 7504 ft 93 kts 19°
2026-04-12 20:35 -33.03814 -53.69909 7503 ft 93 kts 19°
2026-04-12 20:36 -33.03257 -53.69526 7502 ft 93 kts 19°
2026-04-12 20:36 -33.02699 -53.69144 7502 ft 93 kts 19°
2026-04-12 20:36 -33.02143 -53.68762 7503 ft 92 kts 19°
2026-04-12 20:36 -33.01586 -53.68380 7503 ft 92 kts 19°
2026-04-12 20:37 -33.01031 -53.67999 7503 ft 92 kts 19°
2026-04-12 20:37 -33.00473 -53.67617 7503 ft 92 kts 19°
2026-04-12 20:37 -32.99917 -53.67236 7503 ft 92 kts 19°
2026-04-12 20:37 -32.99362 -53.66855 7503 ft 93 kts 19°
2026-04-12 20:38 -32.98806 -53.66474 7507 ft 92 kts 19°
2026-04-12 20:38 -32.98253 -53.66095 7512 ft 92 kts 19°
2026-04-12 20:38 -32.97699 -53.65716 7514 ft 92 kts 19°
2026-04-12 20:38 -32.97147 -53.65337 7515 ft 92 kts 19°
2026-04-12 20:39 -32.96593 -53.64958 7515 ft 92 kts 19°
2026-04-12 20:39 -32.96037 -53.64577 7514 ft 92 kts 19°
2026-04-12 20:39 -32.95480 -53.64195 7514 ft 92 kts 19°
2026-04-12 20:39 -32.94925 -53.63815 7514 ft 92 kts 19°
2026-04-12 20:40 -32.94370 -53.63435 7514 ft 92 kts 19°
2026-04-12 20:40 -32.93813 -53.63054 7514 ft 92 kts 19°
2026-04-12 20:40 -32.93258 -53.62674 7515 ft 92 kts 19°
2026-04-12 20:40 -32.92703 -53.62294 7515 ft 92 kts 19°
2026-04-12 20:41 -32.92149 -53.61915 7515 ft 92 kts 19°
2026-04-12 20:41 -32.91594 -53.61535 7515 ft 92 kts 19°
2026-04-12 20:41 -32.91038 -53.61155 7515 ft 92 kts 19°
2026-04-12 20:41 -32.90483 -53.60775 7515 ft 92 kts 19°
2026-04-12 20:42 -32.89927 -53.60395 7515 ft 92 kts 19°
2026-04-12 20:42 -32.89372 -53.60016 7515 ft 92 kts 19°
2026-04-12 20:42 -32.88816 -53.59636 7515 ft 92 kts 19°
2026-04-12 20:42 -32.88261 -53.59256 7515 ft 92 kts 19°
2026-04-12 20:43 -32.87706 -53.58877 7515 ft 92 kts 19°
2026-04-12 20:43 -32.87149 -53.58497 7515 ft 92 kts 19°
2026-04-12 20:43 -32.86597 -53.58118 7518 ft 92 kts 19°
2026-04-12 20:43 -32.86046 -53.57742 7518 ft 92 kts 19°
2026-04-12 20:44 -32.85494 -53.57365 7518 ft 92 kts 19°
2026-04-12 20:44 -32.84944 -53.56990 7519 ft 91 kts 19°
2026-04-12 20:44 -32.84394 -53.56614 7520 ft 91 kts 19°
2026-04-12 20:44 -32.83844 -53.56239 7520 ft 91 kts 19°
2026-04-12 20:45 -32.83294 -53.55864 7520 ft 91 kts 19°
2026-04-12 20:45 -32.82745 -53.55489 7520 ft 91 kts 19°
2026-04-12 20:45 -32.82196 -53.55114 7521 ft 91 kts 19°
2026-04-12 20:45 -32.81648 -53.54740 7521 ft 91 kts 19°
2026-04-12 20:46 -32.81099 -53.54366 7521 ft 91 kts 19°
2026-04-12 20:46 -32.80551 -53.53992 7521 ft 91 kts 19°
2026-04-12 20:46 -32.80004 -53.53618 7521 ft 91 kts 19°
2026-04-12 20:46 -32.79455 -53.53244 7521 ft 91 kts 19°
2026-04-12 20:47 -32.78906 -53.52870 7521 ft 91 kts 19°
2026-04-12 20:47 -32.78358 -53.52496 7521 ft 91 kts 19°
2026-04-12 20:47 -32.77809 -53.52122 7521 ft 91 kts 19°
2026-04-12 20:47 -32.77261 -53.51748 7521 ft 91 kts 19°
2026-04-12 20:48 -32.76712 -53.51374 7521 ft 91 kts 19°
2026-04-12 20:48 -32.76164 -53.51001 7521 ft 91 kts 19°
2026-04-12 20:48 -32.75616 -53.50628 7521 ft 91 kts 19°
2026-04-12 20:48 -32.75067 -53.50253 7521 ft 91 kts 19°
2026-04-12 20:49 -32.74519 -53.49880 7521 ft 91 kts 19°
2026-04-12 20:49 -32.73971 -53.49507 7521 ft 91 kts 19°
2026-04-12 20:49 -32.73423 -53.49134 7521 ft 91 kts 19°
2026-04-12 20:49 -32.72875 -53.48761 7522 ft 91 kts 19°
2026-04-12 20:50 -32.72328 -53.48389 7522 ft 91 kts 19°
2026-04-12 20:50 -32.71781 -53.48016 7522 ft 91 kts 19°
2026-04-12 20:50 -32.71233 -53.47643 7522 ft 91 kts 19°
2026-04-12 20:50 -32.70686 -53.47271 7522 ft 91 kts 19°
2026-04-12 20:51 -32.70139 -53.46899 7522 ft 91 kts 19°
2026-04-12 20:51 -32.69592 -53.46527 7522 ft 91 kts 19°
2026-04-12 20:51 -32.69048 -53.46156 7527 ft 90 kts 18°
2026-04-12 20:51 -32.68507 -53.45789 7525 ft 90 kts 18°
2026-04-12 20:52 -32.67967 -53.45421 7526 ft 90 kts 18°
2026-04-12 20:52 -32.67427 -53.45054 7526 ft 90 kts 18°
2026-04-12 20:52 -32.66887 -53.44687 7527 ft 90 kts 18°
2026-04-12 20:52 -32.66346 -53.44320 7527 ft 90 kts 18°
2026-04-12 20:53 -32.65806 -53.43953 7527 ft 90 kts 18°
2026-04-12 20:53 -32.65265 -53.43585 7524 ft 90 kts 18°
2026-04-12 20:53 -32.64721 -53.43215 7524 ft 90 kts 18°
2026-04-12 20:53 -32.64175 -53.42845 7524 ft 90 kts 18°
2026-04-12 20:54 -32.63631 -53.42475 7524 ft 91 kts 18°
2026-04-12 20:54 -32.63085 -53.42104 7523 ft 91 kts 18°
2026-04-12 20:54 -32.62539 -53.41733 7523 ft 91 kts 18°
2026-04-12 20:54 -32.61994 -53.41363 7523 ft 91 kts 18°
2026-04-12 20:55 -32.61448 -53.40993 7523 ft 91 kts 18°
2026-04-12 20:55 -32.60902 -53.40622 7523 ft 91 kts 18°
2026-04-12 20:55 -32.60356 -53.40251 7522 ft 91 kts 18°
2026-04-12 20:55 -32.59807 -53.39878 7522 ft 91 kts 19°
2026-04-12 20:56 -32.59260 -53.39507 7522 ft 91 kts 19°
2026-04-12 20:56 -32.58714 -53.39136 7522 ft 91 kts 19°
2026-04-12 20:56 -32.58167 -53.38764 7522 ft 91 kts 19°
2026-04-12 20:56 -32.57620 -53.38387 7522 ft 92 kts 21°
2026-04-12 20:57 -32.57098 -53.37945 7528 ft 92 kts 25°
2026-04-12 20:57 -32.56590 -53.37495 7525 ft 93 kts 26°
2026-04-12 20:57 -32.56114 -53.37068 7524 ft 93 kts 26°
2026-04-12 20:57 -32.55594 -53.36599 7492 ft 96 kts 27°
2026-04-12 20:58 -32.55036 -53.36104 7382 ft 104 kts 28°
2026-04-12 20:58 -32.54442 -53.35576 7251 ft 109 kts 28°
2026-04-12 20:58 -32.53826 -53.35026 7101 ft 113 kts 29°
2026-04-12 20:58 -32.53195 -53.34460 6943 ft 115 kts 29°
2026-04-12 20:59 -32.52554 -53.33887 6778 ft 116 kts 29°
2026-04-12 20:59 -32.51906 -53.33312 6611 ft 117 kts 29°
2026-04-12 20:59 -32.51253 -53.32733 6442 ft 118 kts 29°
2026-04-12 20:59 -32.50600 -53.32150 6269 ft 118 kts 30°
2026-04-12 21:00 -32.49958 -53.31565 6090 ft 113 kts 30°
2026-04-12 21:00 -32.49345 -53.31016 5874 ft 108 kts 29°
2026-04-12 21:00 -32.48759 -53.30488 5672 ft 105 kts 29°
2026-04-12 21:00 -32.48189 -53.29971 5483 ft 103 kts 29°
2026-04-12 21:01 -32.47625 -53.29461 5301 ft 102 kts 29°
2026-04-12 21:01 -32.47065 -53.28953 5123 ft 101 kts 29°
2026-04-12 21:01 -32.46508 -53.28450 4948 ft 101 kts 29°
2026-04-12 21:01 -32.45949 -53.27946 4774 ft 101 kts 29°
2026-04-12 21:02 -32.45391 -53.27443 4601 ft 101 kts 29°
2026-04-12 21:02 -32.44832 -53.26939 4429 ft 101 kts 29°
2026-04-12 21:02 -32.44276 -53.26437 4271 ft 100 kts 29°
2026-04-12 21:02 -32.43724 -53.25939 4119 ft 100 kts 29°
2026-04-12 21:03 -32.43174 -53.25440 3968 ft 100 kts 29°
2026-04-12 21:03 -32.42624 -53.24942 3819 ft 100 kts 29°
2026-04-12 21:03 -32.42071 -53.24443 3671 ft 100 kts 29°
2026-04-12 21:03 -32.41519 -53.23945 3522 ft 100 kts 29°
2026-04-12 21:04 -32.40964 -53.23444 3374 ft 100 kts 29°
2026-04-12 21:04 -32.40411 -53.22945 3226 ft 101 kts 29°
2026-04-12 21:04 -32.39855 -53.22444 3077 ft 101 kts 29°
2026-04-12 21:04 -32.39300 -53.21943 2927 ft 101 kts 29°
2026-04-12 21:05 -32.38744 -53.21444 2776 ft 101 kts 29°
2026-04-12 21:05 -32.38186 -53.20946 2626 ft 101 kts 29°
2026-04-12 21:05 -32.37635 -53.20451 2494 ft 98 kts 28°
2026-04-12 21:05 -32.37093 -53.19969 2351 ft 98 kts 29°
2026-04-12 21:06 -32.36554 -53.19485 2217 ft 97 kts 29°
2026-04-12 21:06 -32.36019 -53.19006 2087 ft 97 kts 29°
2026-04-12 21:06 -32.35485 -53.18533 1960 ft 96 kts 29°
2026-04-12 21:06 -32.34958 -53.18064 1827 ft 95 kts 30°
2026-04-12 21:07 -32.34433 -53.17593 1698 ft 95 kts 30°
2026-04-12 21:07 -32.33907 -53.17128 1570 ft 94 kts 30°
2026-04-12 21:07 -32.33383 -53.16659 1443 ft 95 kts 31°
2026-04-12 21:07 -32.32858 -53.16193 1317 ft 95 kts 31°
2026-04-12 21:08 -32.32348 -53.15737 1196 ft 95 kts 32°
2026-04-12 21:08 -32.31813 -53.15258 1069 ft 95 kts 32°
2026-04-12 21:08 -32.31284 -53.14790 946 ft 95 kts 32°
2026-04-12 21:08 -32.30761 -53.14322 821 ft 94 kts 33°
2026-04-12 21:09 -32.30246 -53.13862 728 ft 90 kts 33°
2026-04-12 21:09 -32.29772 -53.13435 631 ft 81 kts 32°
2026-04-12 21:09 -32.29317 -53.13035 488 ft 83 kts 32°
2026-04-12 21:09 -32.28854 -53.12629 399 ft 81 kts 31°
2026-04-12 21:10 -32.28424 -53.12254 416 ft 67 kts 26°
2026-04-12 21:10 -32.28010 -53.11967 503 ft 63 kts 28°
2026-04-12 21:10 -32.27682 -53.11659 571 ft 65 kts 22°
2026-04-12 21:10 -32.27271 -53.11344 587 ft 66 kts 26°
2026-04-12 21:11 -32.26901 -53.11087 643 ft 60 kts 17°
2026-04-12 21:11 -32.26560 -53.10763 644 ft 65 kts 30°
2026-04-12 21:11 -32.26198 -53.10416 612 ft 70 kts 33°
2026-04-12 21:11 -32.25811 -53.10051 548 ft 73 kts 33°
2026-04-12 21:12 -32.25405 -53.09675 463 ft 75 kts 33°
2026-04-12 21:12 -32.24995 -53.09341 444 ft 69 kts 24°
2026-04-12 21:12 -32.24631 -53.09087 526 ft 59 kts 18°
2026-04-12 21:12 -32.24270 -53.08837 553 ft 61 kts 24°
2026-04-12 21:13 -32.23918 -53.08572 588 ft 61 kts 27°
2026-04-12 21:13 -32.23574 -53.08205 537 ft 71 kts 39°
2026-04-12 21:13 -32.23200 -53.07801 455 ft 76 kts 41°
2026-04-12 21:13 -32.22824 -53.07313 257 ft 84 kts 45°
2026-04-12 21:14 -32.22495 -53.06840 165 ft 52 kts 46°
2026-04-12 21:14 -32.22416 -53.06729 165 ft 0 kts 48°